Home   Weather   United Kingdom   Chatham   Past weeks
Flag for United Kingdom

Past Weather in Chatham, England, United Kingdom — Yesterday and Last 2 Weeks

Currently: 32 °F. Clear. (Weather station: Southend Airport-On-Sea, United Kingdom). See more current weather

Past Weather in Chatham — Graph

°F

Chatham Temperature Yesterday

Maximum temperature yesterday: 52 °F (at 12:50 pm)
Minimum temperature yesterday: 30 °F (at 4:20 am)
Average temperature yesterday: 42 °F

High & Low Weather Summary for the Past Weeks

 TemperatureHumidityPressure
High57 °F (Apr 4, 3:50 pm)100% (Apr 16, 3:20 am)30.51 "Hg (Apr 16, 3:20 am)
Low27 °F (Apr 13, 4:50 am)25% (Apr 5, 4:20 pm)29.86 "Hg (Apr 9, 3:50 pm)
Average41 °F66%30.25 "Hg
* Reported Apr 3 2:50 am — Apr 18 2:20 am, Chatham. Weather by CustomWeather, © 2021

Note: Actual official high and low records may vary slightly from our data, if they occured in-between our weather recording intervals... More about our weather records

Chatham Weather History for the Previous 24 Hours

Scroll right to see more
 ConditionsComfort  
Time TempWeatherWind HumidityBarometerVisibility
2:20 am
Sun, Apr 18
32 °FClear.2 mph87%30.30 "Hg10 mi
1:20 am32 °FClear.2 mph87%30.33 "Hg10 mi
12:50 am34 °FClear.2 mph87%30.33 "Hg10 mi
11:50 pm
Sat, Apr 17
34 °FClear.2 mph87%30.33 "Hg10 mi
11:20 pm36 °FClear.2 mph81%30.33 "Hg10 mi
10:50 pm37 °FClear.2 mph75%30.33 "Hg10 mi
10:20 pm39 °FClear.No wind75%30.33 "Hg10 mi
9:50 pm39 °FClear.3 mph75%30.33 "Hg10 mi
3:50 pm50 °FPassing clouds.10 mph40%30.36 "HgN/A
3:20 pm52 °FPassing clouds.12 mph41%30.36 "HgN/A
2:50 pm52 °FPassing clouds.12 mph41%30.36 "HgN/A
2:20 pm52 °FPassing clouds.10 mph41%30.36 "HgN/A
1:50 pm52 °FPassing clouds.10 mph41%30.36 "HgN/A
1:20 pm52 °FPassing clouds.10 mph41%30.39 "HgN/A
12:50 pm52 °FPassing clouds.12 mph44%30.39 "HgN/A
12:20 pm50 °FPassing clouds.14 mph43%30.39 "HgN/A
11:50 am50 °FPassing clouds.8 mph43%30.39 "HgN/A
11:20 am50 °FPassing clouds.12 mph43%30.39 "HgN/A
10:50 am50 °FPassing clouds.9 mph47%30.42 "HgN/A
10:20 am48 °FPassing clouds.9 mph46%30.42 "HgN/A
9:50 am48 °FPassing clouds.9 mph62%30.42 "HgN/A
9:20 am45 °FPassing clouds.9 mph71%30.42 "HgN/A
8:50 am43 °FPassing clouds.8 mph81%30.42 "HgN/A
8:20 am41 °FSunny.7 mph81%30.42 "Hg10 mi
7:50 am39 °FSunny.7 mph87%30.42 "Hg10 mi
7:20 am37 °FSunny.6 mph75%30.42 "Hg10 mi
6:50 am34 °FSunny.6 mph93%30.42 "Hg10 mi
6:20 am32 °FSunny.6 mph93%30.42 "Hg10 mi
5:50 am34 °FClear.6 mph87%30.42 "Hg10 mi
5:20 am34 °FClear.5 mph87%30.42 "Hg10 mi
4:50 am32 °FClear.6 mph93%30.42 "Hg10 mi
4:20 am30 °FClear.3 mph93%30.42 "Hg10 mi
3:20 am32 °FClear.2 mph93%30.42 "Hg10 mi
Weather by CustomWeather, © 2021

See weather overview